User: anonymous   Login
Location: Hurstbourne Priors
(51.2000°N, 1.3667°W)
Time: 23:56:32
(UTC+00:00)
Language:

Explorer 7 - Orbit

View from above orbital plane
View from above orbital plane
View from above satellite
View from above satellite

Ground track
Ground track

The orbit data is extracted from the following two-line orbital elements,

1 00022U 59009A   21108.57557797  .00000757  00000-0  78700-4 0  9996
2 00022  50.2831 110.0779 0138790 344.7023  14.9749 14.95491347516026
Epoch (UTC): 18 April 2021 13:48:49
Eccentricity: 0.0138790
inclination: 50.2831°
perigee height: 484 km
apogee height: 677 km
right ascension of ascending node: 110.0779°
argument of perigee: 344.7023°
revolutions per day: 14.95491347
mean anomaly at epoch: 14.9749°
orbit number at epoch: 51602

The dashed part of the orbit path shows where the satellite is in the earth's shadow,  

DLR